Submittal Forms
Current Contests
Recent Contests

Club Activity Tracker - Society of Midwest Contesters (from club selection on form)

Recent postings for the selected club or group are listed below. Other than the call used, all calls listed are only those associated with the club or group. Click on a call to see the details of the posting.
Status Key: new=new posting, update=update prior posting, move=change club/group, delete=delete prior posting.

Sort by   for past

TimestampCallContestClassPowerScoreStatus
2020-05-25 23:51:32KC9YLYL DayYLLP36new5607
2020-05-25 19:48:27WZ0WQCXSingle OpQRP3new5604
2020-05-22 03:26:16W9RENCCC SprintSingle OpLP2,655new5598
2020-05-22 03:14:27K9BGLNCCC SprintSingle OpLP1,862new5598
2020-05-21 15:21:24W8RZCWopsTSingle OpLP1,444new5593
2020-05-21 04:57:03W9RECWopsTSingle OpLP1,419new5594
2020-05-21 04:13:00K9ZOCWopsTSingle OpHP19,035new5593
2020-05-21 04:07:19K9ZOCWopsTSingle OpHP22,201new5594
2020-05-21 04:05:09K9KMCWopsTSingle OpLP2,025new5594
2020-05-21 04:04:55W9NXMCWopsTSingle OpLP2,295new5594
 
2020-05-21 04:04:51K9NRCWopsTSingle OpLP15,982new5594
2020-05-21 04:04:44KG9XCWopsTSingle OpLP12,980new5594
2020-05-21 04:04:03WT2PCWopsTSingle OpHP5,698new5594
2020-05-21 04:03:58K9DXCWopsTSingle OpLP10,584new5594
2020-05-21 04:03:15KS9WCWopsTSingle OpLP9,696new5594
2020-05-21 04:02:37N7USCWopsTSingle OpLP11,016new5594
2020-05-21 04:02:25K0TQCWopsTSingle OpHP2,916new5594
2020-05-21 04:01:49NY3ACWopsTSingle OpHP17,136new5594
2020-05-21 04:00:45WT9UCWopsTSingle OpLP12,480new5594
2020-05-20 20:26:38KB9SCWopsTSingle OpLP625new5593
 
2020-05-20 20:22:37WZ0WCWopsTSingle OpLP484new5593
2020-05-20 20:08:50W9NXMCWopsTSingle OpLP3,660new5593
2020-05-20 20:08:47K9KMCWopsTSingle OpLP1,681new5593
2020-05-20 20:06:34KG9XCWopsTSingle OpLP13,924new5593
2020-05-20 20:05:32NJ8MCWopsTSingle OpHP15,004new5593
2020-05-20 20:04:22K9CTCWopsTSingle OpHP35,066new5593
2020-05-20 20:04:21N5KBCWopsTSingle OpLP1,155new5593
2020-05-20 20:03:13K9DXCWopsTSingle OpLP11,024new5593
2020-05-20 20:02:54N7USCWopsTSingle OpLP12,321new5593
2020-05-20 20:02:15NX9GCWopsTSingle OpHP841new5593
 
2020-05-20 20:01:10WT9UCWopsTSingle OpLP14,268new5593
2020-05-20 20:01:08K9WXCWopsTSingle OpLP9,984new5593
2020-05-20 16:10:07KB9SCWopsTSingle OpLP840new5592
2020-05-20 14:19:02K9ZOCWopsTSingle OpHP30,276new5592
2020-05-20 14:17:07W9NXMCWopsTSingle OpLP841new5592
2020-05-20 14:09:04W9RECWopsTSingle OpHP33,440new5592
2020-05-20 14:06:16NJ8MCWopsTSingle OpHP11,881new5592
2020-05-20 14:04:38KS9WCWopsTSingle OpLP6,552new5592
2020-05-20 14:04:19KG9XCWopsTSingle OpLP10,815new5592
2020-05-20 14:03:05K9CTCWopsTSingle OpHP38,808new5592
 
2020-05-20 14:02:15K9NNCWopsTSingle OpLP7,480new5592
2020-05-20 14:02:09KY0QCWopsTSingle OpLP3,339new5592
2020-05-20 14:02:04N7USCWopsTSingle OpLP10,506new5592
2020-05-20 14:01:08WT9UCWopsTSingle OpLP10,706new5592
2020-05-20 14:00:48K9WXCWopsTSingle OpLP10,710new5592
2020-05-19 14:35:14WB9HFKWWSACSOAB-OMLP1,521new5587
2020-05-19 08:12:28N9VPVWWSACSOAB-OMLP1,111new5587
2020-05-19 03:44:14NV9LWWSACSOAB-YLHP15,192update5587
2020-05-19 02:17:12K9TIWWSACSOAB-OMHP4,292new5587
2020-05-18 21:23:27WB9TFHHamventionSingle OpHP57new5569
 
2020-05-18 01:41:02KC9YLHamventionSingle OpLP11new5569
2020-05-17 20:02:49WD9CIRHamventionSingle OpLP260update5569
2020-05-17 16:27:23K9DJTHamventionSingle OpLP407new5569
2020-05-17 13:49:17W9XTHamventionSingle OpLP468new5569
2020-05-17 13:45:11W9WEHamventionSingle OpLP22new5569
2020-05-17 13:35:55K9CTHamventionSingle OpHP411new5569
2020-05-17 12:56:28N8IWHamventionSingle OpLP105new5569
2020-05-17 11:54:30W9MXQHamventionSingle OpLP229new5569
2020-05-17 09:46:38NS9IHamventionSingle OpLP233new5569
2020-05-17 05:17:08KC9EOQHamventionSingle OpHP12new5569
 
2020-05-17 04:17:23K9MMSHamventionSingle OpHP150new5569
2020-05-17 04:06:49K9UIYHamventionSingle OpLP166new5569
2020-05-17 03:12:07WB9TFFHamventionSingle OpHP112new5569
2020-05-17 02:53:30WT9UKing of Spain CWSOABHP40,560new5583
2020-05-17 02:39:50KJ9BHamventionSingle OpHP22new5569
2020-05-17 02:03:15KG9XHamventionSingle OpLP259new5569
2020-05-17 01:18:41N9VPVHamventionSingle OpLP19new5569
2020-05-17 01:04:33K9KMHamventionSingle OpLP110update5569
2020-05-17 00:49:01WT2PHamventionSingle OpHP142new5569
2020-05-17 00:25:00K9ZOHamventionSingle OpHP1,189new5569
 
2020-05-17 00:22:53WB9ZHamventionSingle OpHP981new5569
2020-05-17 00:16:18NV9LHamventionSingle OpHP267new5569
2020-05-17 00:15:35WB9HFKHamventionSingle OpLP362new5569
2020-05-17 00:13:06K9NRHamventionSingle OpLP339new5569
2020-05-17 00:03:14N7USHamventionSingle OpHP92new5569
2020-05-16 23:09:24AC8ZUHamventionSingle OpLP41new5569
2020-05-15 03:30:36W9RENCCC SprintSingle OpLP2,478new5580
2020-05-14 19:45:09K7JOECWopsTSingle OpHP5,550new5576
2020-05-14 17:26:41K9CCCWopsTSingle OpLP400new5575
2020-05-14 04:10:36K9ZOCWopsTSingle OpHP23,409new5576
 
2020-05-14 04:08:09KG9XCWopsTSingle OpLP12,300new5576
2020-05-14 04:04:40K0TQCWopsTSingle OpHP3,906new5576
2020-05-14 04:03:57NJ8MCWopsTSingle OpHP10,700new5576
2020-05-14 04:03:36W9RECWopsTSingle OpLP4,020new5576
2020-05-14 04:02:57N7USCWopsTSingle OpLP9,476new5576
2020-05-14 04:02:52NS0RCWopsTSingle OpHP16,625new5576
2020-05-14 04:02:09WB0SNDCWopsTSingle OpHP10,000new5576
2020-05-14 04:02:06K9DXCWopsTSingle OpLP11,021new5576
2020-05-14 04:01:45N0AXCWopsTSingle OpLP10,900new5576
2020-05-14 04:01:03WT9UCWopsTSingle OpLP11,988new5576
 
2020-05-13 21:14:10K9ZOCWopsTSingle OpHP25,600new5575
2020-05-13 20:05:27K9CTCWopsTSingle OpHP26,860new5575
2020-05-13 20:05:00W9NXMCWopsTSingle OpLP675new5575
2020-05-13 20:04:16KG9XCWopsTSingle OpLP8,928new5575
2020-05-13 20:02:46K9DXCWopsTSingle OpLP6,391new5575
2020-05-13 20:02:37K9NNCWopsTSingle OpLP6,232new5575
2020-05-13 20:01:44NX9GCWopsTSingle OpHP1,980new5575
2020-05-13 20:01:29N7USCWopsTSingle OpLP9,603new5575
2020-05-13 20:00:42WT9UCWopsTSingle OpLP13,340new5575
2020-05-13 20:00:24K9WXCWopsTSingle OpLP9,312new5575
 
2020-05-13 19:57:58N5KBCWopsTSingle OpLP1,406new5575
2020-05-13 17:29:39W9TNInQPSingle OpLP5,699move5545
2020-05-13 14:19:44W9NXMCWopsTSingle OpLP961new5574
2020-05-13 14:17:44K9ZOCWopsTSingle OpHP33,489new5574
2020-05-13 14:11:33K9CTCWopsTSingle OpHP23,562new5574
2020-05-13 14:05:14W9RECWopsTSingle OpLP12,733new5574
2020-05-13 14:04:05KG9XCWopsTSingle OpLP8,900new5574
2020-05-13 14:02:38N7USCWopsTSingle OpLP9,118new5574
2020-05-13 14:02:30K9NNCWopsTSingle OpLP7,553new5574
2020-05-13 14:02:22K9DXCWopsTSingle OpLP8,928new5574
 
2020-05-13 14:01:09K9WXCWopsTSingle OpLP12,882new5574
2020-05-13 14:00:53WT9UCWopsTSingle OpLP15,600new5574
2020-05-12 20:52:41KC9ULArQPSOMixedLP187new5565
2020-05-11 23:27:38K9FA50SprngSprntSingle OpLP200new5567
2020-05-11 07:48:02K2DRH50SprngSprntSingle OpHP5,768new5567
2020-05-11 05:48:48KC9EOQVolta RTTYSOABHP1,884,800new5563
2020-05-11 03:55:56N9WEWInQPSingle OpLP304new5545
2020-05-11 00:02:34WS9V50SprngSprntSingle OpHP1,064update5567
2020-05-10 18:59:33W9FFAVolta RTTYSOABHP25,672,140new5563
2020-05-10 18:29:49WR0HVolta RTTYSOABHP15,925,280new5563
 
2020-05-10 17:07:56W9NXM50SprngSprntSingle OpLP240new5567
2020-05-10 16:27:37W9QLArQPSOMixedLP4,240new5565
2020-05-10 15:20:11K9CTArQPSOCWHP2,000new5565
2020-05-10 15:12:18N9VPVArQPSOSSBLP216new5565
2020-05-10 15:11:15AC8ZUVolta RTTYSOABLP574,560new5563
2020-05-10 15:06:24K9CTCQ-MSOABCWHP94,672new5564
2020-05-10 14:53:38K9GYCQ-MSOABCWLP17,808new5564
2020-05-10 14:38:16W9RECQ-MSOABCWHP46,585new5564
2020-05-10 14:30:42N9SEArQPSOCWHP32new5565
2020-05-10 14:07:00N7USVolta RTTYSOABHP381,009,904new5563
 
2020-05-10 13:01:09K0PG/R(@K0PG)50SprngSprntRoverHP488new5567
2020-05-10 12:56:34W9IIX50SprngSprntSingle OpLP198new5567
2020-05-10 12:55:23K9ILT/T(K9ILT,@K9ILY)50SprngSprntRoverHP520new5567
2020-05-10 12:40:22KT9LVolta RTTYSOABHP175,243,228new5563
2020-05-10 12:25:53N9WGVolta RTTYSOABLP6,630,000new5563
2020-05-10 10:44:09AI9TVolta RTTYSOABHP228,324,450new5563
2020-05-10 04:00:35WB8BZK50SprngSprntSingle OpLP1,775new5567
2020-05-10 03:20:28W9XA50SprngSprntSingle OpHP1,040new5567
2020-05-10 03:12:31KO9A50SprngSprntSingle OpLP3,534new5567
2020-05-10 02:46:30KJ9BArQPSOSSBHP1,014new5565
 
2020-05-10 02:26:34N9TCAArQPSOMixedLP490new5565
2020-05-10 02:25:59WT9QArQPSOCWLP2,704new5565
2020-05-10 02:17:27WB9HFKArQPSOMixedLP5,544new5565
2020-05-10 02:03:32K9CWArQPSOCWLP3,808new5565
2020-05-10 02:03:11KY0QArQPSOCWLP1,444new5565
2020-05-10 01:38:12K9WXArQPSOMixedHP5,811new5565
2020-05-09 23:00:40N0AXNewEngQPSingle OpHP8,720new5547
2020-05-09 22:59:23N0AXInQPSingle OpHP405new5545
2020-05-09 22:58:16N0AXDeQPSingle OpHP80new5546
2020-05-09 22:57:22N0AX7QPSO(A)MixedHP14,924new5544
 
2020-05-09 15:32:21N9DRInQPSingle OpHP6,834new5545
2020-05-08 22:54:34W9TCNewEngQPSingle OpLP45,360new5547
2020-05-08 22:52:54W9TC7QPSOMixedLP45,360new5544
2020-05-08 22:44:04W9TCInQPSingle OpLP45,360new5545
2020-05-08 03:41:03W9RENCCC SprintSingle OpLP2,240new5562
2020-05-08 03:19:34K9BGLNCCC SprintSingle OpLP1,496new5562
2020-05-07 22:47:11WT2PCWopsTSingle OpHP7,917new5559
2020-05-07 17:47:25K9NRNewEngQPSingle OpLP5,056new5547
2020-05-07 17:35:50K9NR7QPSO(A)CWLP855new5544
2020-05-07 16:30:57K9NRInQPSingle OpLP836new5545
 
2020-05-07 04:05:04K7JOECWopsTSingle OpHP8,811new5559
2020-05-07 04:05:02KS9WCWopsTSingle OpLP4,216new5559
2020-05-07 04:03:52KG9XCWopsTSingle OpLP13,098new5559
2020-05-07 04:02:57K9XWCWopsTSingle OpLP4,964new5559
2020-05-07 04:02:51W9RECWopsTSingle OpLP4,216new5559
2020-05-07 04:02:44N7USCWopsTSingle OpHP10,752new5559
2020-05-07 04:02:33NS0RCWopsTSingle OpHP19,152new5559
2020-05-06 21:26:45K9ZOCWopsTSingle OpHP21,025new5557
2020-05-06 20:15:26K9ZOCWopsTSingle OpHP26,896new5558
2020-05-06 20:05:44W9NXMCWopsTSingle OpLP1,806new5558
 
2020-05-06 20:04:07KG9XCWopsTSingle OpLP11,211new5558
2020-05-06 20:02:52K9DXCWopsTSingle OpLP12,420new5558
2020-05-06 20:02:37K9WXCWopsTSingle OpLP8,280new5558
2020-05-06 20:02:35K7JOECWopsTSingle OpHP4,899new5558
2020-05-06 20:02:09NX9GCWopsTSingle OpHP1,980new5558
2020-05-06 20:01:59N7USCWopsTSingle OpLP9,991new5558
2020-05-06 20:01:51K9NNCWopsTSingle OpLP6,474new5558
2020-05-06 20:01:10N0AXCWopsTSingle OpLP6,314new5557
2020-05-06 19:57:26N5KBCWopsTSingle OpLP576new5558
2020-05-06 14:22:53K9XWCWopsTSingle OpLP4,356new5557
 
2020-05-06 14:13:11W9RECWopsTSingle OpLP19,845new5557
2020-05-06 14:10:19W9NXMCWopsTSingle OpLP870new5557
2020-05-06 14:09:11K9CTCWopsTSingle OpHP28,224new5557
2020-05-06 14:06:56KG9XCWopsTSingle OpLP8,742new5557
2020-05-06 14:04:35K9DXCWopsTSingle OpLP8,100new5557
2020-05-06 14:04:12WZ0WCWopsTSingle OpLP400new5557
2020-05-06 14:02:57N7USCWopsTSingle OpLP12,402new5557
2020-05-06 14:01:43K9NNCWopsTSingle OpLP5,168new5557
2020-05-06 14:01:24K9WXCWopsTSingle OpLP6,880new5557
2020-05-05 19:31:45W9IZInQPSingle OpLP6,785new5545
 
2020-05-04 21:17:19N9VPVInQPSingle OpLP238new5545
2020-05-04 21:15:07K9CWDeQPSingle OpLP2,800update5546
2020-05-04 21:14:51N9VPVNewEngQPSingle OpLP1,682new5547
2020-05-04 21:08:05N9VPVDeQPSingle OpLP20new5546
2020-05-04 21:03:19N9VPV7QPSO(A)SSBLP2,030new5544
2020-05-04 18:24:48WT9QNewEngQPSingle OpLP11,856new5547
2020-05-04 18:22:06WT9QInQPSingle OpLP330new5545
2020-05-04 18:20:22WT9QDeQPSingle OpLP800new5546
2020-05-04 18:17:15WT9Q7QPSO(A)CWLP22,032new5544
2020-05-04 17:52:18AA5UK432SprngSprntSingle OpLP18new5517
 
2020-05-04 16:33:37N5KBNewEngQPSingle OpHP2,604new5547
2020-05-04 16:31:58N5KB7QPM/SHP4,785new5544
 (@N5KB)
2020-05-04 16:29:14N5KBInQPSingle OpHP242new5545
2020-05-04 16:27:09N5KBDeQPSingle OpHP80new5546
2020-05-04 16:00:21W9QLInQPSingle OpLP4,320new5545
2020-05-04 15:58:41W9QLNewEngQPSingle OpLP10,296new5547
2020-05-04 15:57:18W9QLDeQPSingle OpLP1,920new5546
2020-05-04 15:55:47W9QL7QPSO(A)MixedLP13,202new5544
2020-05-04 15:24:52NV9L7QPM/SHP66,528new5544
 (NV9L,@WB9Z)
2020-05-04 15:20:31N7USNewEngQPSingle OpHP19,968update5547
 
2020-05-04 15:19:50N7USDeQPSingle OpHP1,920update5546
2020-05-04 15:10:49K9GSDeQPSingle OpLP4,480update5546
2020-05-04 15:10:15K9ELFInQPSingle OpLP4,437new5545
2020-05-04 15:09:39K9CWInQPSingle OpLP410update5545
2020-05-04 13:43:10WB9HFKNewEngQPSingle OpLP28,152new5547
2020-05-04 13:41:28WB9HFKInQPSingle OpLP1,325new5545
2020-05-04 13:39:52WB9HFKDeQPSingle OpLP710new5546
2020-05-04 13:38:23WB9HFK7QPSOMixedLP16,830new5544
2020-05-04 02:59:43K9CWNewEngQPSingle OpLP17,014new5547
2020-05-04 02:47:24L0CWNewEngQPSingle OpLP17,014new5547
 
2020-05-04 02:36:25K9CW7QPSO(A)CWLP19,737new5544
2020-05-04 01:51:14KG9XNewEngQPSingle OpLP15,288new5547
2020-05-04 01:47:51KG9XInQPSingle OpLP494new5545
2020-05-04 01:44:59KG9XDeQPSingle OpLP2,800new5546
2020-05-04 01:39:46N9TCA7QPSO(A)SSBLP72new5544
2020-05-04 01:37:08N9TCANewEngQPSingle OpLP81new5547
2020-05-04 01:35:41N9TCAInQPSingle OpLP36new5545
2020-05-04 01:34:45NV9LNewEngQPM/SHP38,396new5547
 (NV9L,@WB9Z)
2020-05-04 01:34:41KG9X7QPSO(A)CWLP32,190new5544
2020-05-04 01:34:20N9TCADeQPSingle OpLP80new5546
 
2020-05-04 01:31:29NV9LInQPM/SHP1,350new5545
 (NV9L,@WB9Z)
2020-05-04 01:29:27NV9LDeQPM/SHP2,600new5546
 (NV9L,@WB9Z)
2020-05-04 01:14:24K9NNInQPSingle OpLP175,972new5545
2020-05-04 01:12:10KY0QNewEngQPSingle OpLP5,940new5547
2020-05-04 01:10:37KY0QInQPSingle OpLP700new5545
2020-05-04 01:10:13W7KAMDeQPSingle OpLP170new5546
2020-05-04 01:08:59KY0Q7QPSO(A)CWLP4,524new5544
2020-05-04 01:07:09KY0QDeQPSingle OpLP360new5546
2020-05-04 00:27:41W7KAMNewEngQPSingle OpLP1,600new5547
2020-05-04 00:08:35K9ELFNewEngQPSingle OpLP42new5547
 
2020-05-04 00:06:41K9ELF7QPSOSSBLP798new5544
2020-05-04 00:06:33K9WXNewEngQPSingle OpLP13,478new5547
2020-05-04 00:04:29K9WXDeQPM/SLP900new5546
 (@K9WX)
2020-05-04 00:02:56WT2PNewEngQPSingle OpHP10,070new5547
2020-05-03 23:37:06N9LQNewEngQPSingle OpLP1,628new5547
2020-05-03 23:36:04N9LQInQPSingle OpLP8new5545
2020-05-03 23:35:18N9LQDeQPSingle OpLP160new5546
2020-05-03 23:34:25N9LQ7QPSOCWLP1,056new5544
2020-05-03 23:16:01KJ9BInQPSingle OpHP31,590new5545
2020-05-03 23:14:09KJ9BNewEngQPSingle OpHP3,003new5547
 
2020-05-03 23:13:00KJ9BDeQPSingle OpHP150new5546
2020-05-03 23:11:36KJ9B7QPSOSSBHP2,856new5544
2020-05-03 21:11:36K9GSInQPSingle OpLP2new5545
2020-05-03 21:09:08K9GSNewEngQPSingle OpLP17,572new5547
2020-05-03 21:07:12W9SMC(KJ9C)InQPSingle OpHP65,600new5545
2020-05-03 21:05:58K9GS7QPSO(A)CWLP20,736new5544
2020-05-03 20:31:22K9CTNewEngQPSingle OpHP33,712new5547
2020-05-03 20:30:32K9CTInQPSingle OpHP4,640new5545
2020-05-03 20:29:45K9CTDeQPSingle OpHP4,400new5546
2020-05-03 20:29:00K9CT7QPSO(A)CWHP92,394new5544
 
2020-05-03 19:15:19K0TQInQPSingle OpHP27,192new5545
2020-05-03 17:37:25N7USInQPSingle OpHP702new5545
2020-05-03 17:36:01N7US7QPSO(A)CWHP46,860new5544
2020-05-03 17:17:30N9SENewEngQPM/SHP1,975new5547
 (N9XLV,@N9SE)
2020-05-03 17:13:51N9SE7QPM/SHP21,978new5544
 (N9XLV,@N9SE)
2020-05-03 17:10:39N9SEDeQPM/SHP180new5546
 (N9XLV,@N9SE)
2020-05-03 16:57:30N9SEInQPM/SHP197,760new5545
 (N9XLV,@N9SE)
2020-05-03 16:12:11W9SZ/R(@W9SZ)MWaveSprngSprntRoverLP233new5542
2020-05-03 15:53:15W9LUInQPSingle OpLP5,478new5545
2020-05-03 14:50:52W9REInQPSingle OpLP33,000new5545
 
2020-05-03 14:28:38WT2PInQPSingle OpHP2,739new5545
2020-05-03 14:25:39WT2P7QPSO(A)MixedHP12,432new5544
2020-05-03 12:17:51W7KAM7QPSOSSBLP1,728new5544
2020-05-03 11:46:32W7KAMInQPSingle OpLP270new5545
2020-05-03 11:21:39W9FFAInQPSingle OpHP1,376new5545
2020-05-03 10:29:22K9WXInQPSingle OpLP125,488new5545
2020-05-03 10:25:53K9WX7QPSOMixedLP8,160new5544
2020-05-03 05:23:11KM9MInQPSingle OpLP240new5545
2020-05-03 03:14:20WT9UNewEngQPSingle OpHP6,265new5547
2020-05-03 03:13:11WT9UDeQPSingle OpHP120new5546
 
2020-05-03 03:12:09WT9U7QPSO(A)MixedHP59,985new5544
2020-05-03 03:08:04WB8BZKInQPSingle OpLP3,034new5545
2020-05-03 03:06:02KT9LInQPSingle OpHP7,296new5545
2020-05-03 03:06:00WT9UInQPSingle OpHP288,673new5545
2020-05-03 03:02:49K9TIInQPSingle OpHP26,124new5545
2020-05-03 02:57:59AB9YCInQPSingle OpLP176new5545
2020-05-03 01:06:33W9XAMWaveSprngSprntSingle OpLP371update5542
2020-05-01 03:23:39W9RENCCC SprintSingle OpLP1,961new5540
2020-05-01 03:18:56K9BGLNCCC SprintSingle OpLP1,776new5540
2020-04-30 13:02:49W8RZCWopsTSingle OpLP729new5536
 
2020-04-30 04:11:24K9ZOCWopsTSingle OpHP22,983new5537
2020-04-30 04:05:26W9NXMCWopsTSingle OpLP2,303new5537
2020-04-30 04:04:56KG9XCWopsTSingle OpLP13,794new5537
2020-04-30 04:04:49K0TQ(1955K0TQ)CWopsTSingle OpHP7,396new5537
2020-04-30 04:02:56KS9WCWopsTSingle OpLP2,912new5537
2020-04-30 04:02:48KY0QCWopsTSingle OpLP2,499new5537
2020-04-30 04:01:53N7USCWopsTSingle OpLP11,445new5537
2020-04-30 04:00:55WT9UCWopsTSingle OpLP16,500new5537
2020-04-29 20:18:58W9NXMCWopsTSingle OpLP1,369new5536
2020-04-29 20:10:18W9RECWopsTSingle OpLP225new5536
 
2020-04-29 20:09:11K9ZOCWopsTSingle OpHP23,868new5536
2020-04-29 20:06:05KG9XCWopsTSingle OpLP6,888new5536
2020-04-29 20:04:24WZ0WCWopsTSingle OpLP462new5536
2020-04-29 20:02:38N5KBCWopsTSingle OpLP1,804new5536
2020-04-29 20:02:29N7USCWopsTSingle OpLP12,096new5536
2020-04-29 20:01:53NX9GCWopsTSingle OpHP1,089new5536
2020-04-29 20:01:36K9NNCWopsTSingle OpLP3,904new5536
2020-04-29 20:01:34KS9WCWopsTSingle OpLP169new5536
2020-04-29 20:00:53WT9UCWopsTSingle OpLP12,321new5536
2020-04-29 19:29:01K9WXCWopsTSingle OpHP961new5536
 
2020-04-29 14:49:31K9ZOCWopsTSingle OpHP25,921new5535
2020-04-29 14:12:35W9NXMCWopsTSingle OpLP1,024new5535
2020-04-29 14:10:55K9XWCWopsTSingle OpLP2,860new5535
2020-04-29 14:07:54K9CTCWopsTSingle OpHP34,776new5535
2020-04-29 14:04:40K9NNCWopsTSingle OpLP1,677new5535
2020-04-29 14:03:45N7USCWopsTSingle OpLP8,464new5535
2020-04-29 14:03:29KG9XCWopsTSingle OpLP12,321new5535
2020-04-29 14:03:23W9RECWopsTSingle OpLP1,444new5535
2020-04-29 14:03:21KY0QCWopsTSingle OpLP1,369new5535
2020-04-29 14:02:53K9WXCWopsTSingle OpLP9,312new5535
 
2020-04-29 14:00:52WT9UCWopsTSingle OpLP8,463new5535
2020-04-27 20:40:00WI9WIFlQPSOABMixedHP17,800new5529
2020-04-27 19:51:31NV9LFlQPM/SMixedHP73,600new5529
 (NV9L,@WB9Z)
2020-04-27 19:18:04W9DZFlQPSOABMixedHP18,942new5529
2020-04-27 16:40:41W9QLFlQPSOABMixedLP32,116new5529
2020-04-27 14:30:24NJ9RFlQPSOABSSBLP198new5529
2020-04-27 14:26:16KC9ULFlQPSOABMixedLP3,400new5529
2020-04-27 14:20:25AI9TSPDX RTTYSOABHP878,080new5520
2020-04-27 06:14:47N9WEWFlQPSOABSSBLP522new5529
2020-04-27 02:34:06N9LJXFlQPSOABMixedLP14,580new5529
 
2020-04-27 02:28:22KC9EOQFlQPSOABSSBHP1,770new5529
2020-04-27 02:05:47W9TCFlQPSOABMixedLP9,129new5529
2020-04-27 01:13:36N9LQFlQPSOAB(A)CWLP14,700new5529
2020-04-27 01:08:58AC8ZUBARTG 75Single OpLP336new5522
2020-04-27 00:43:05KY0QFlQPSOABCWLP3,276new5529
2020-04-27 00:34:18N9COFlQPSOAB(A)CWHP9,512new5529
2020-04-27 00:10:18WT9UFlQPSOAB(A)CWHP17,888new5529
2020-04-26 23:29:42WB9HFKFlQPSOABMixedLP58,752new5529
2020-04-26 22:31:24KJ9BFlQPSOAB(A)SSBHP3,959new5529
2020-04-26 22:19:03K9CWFlQPSOAB(A)CWLP30,448new5529
 
2020-04-26 22:16:51WT9QFlQPSOAB(A)CWLP20,748new5529
2020-04-26 22:15:10K9WXFlQPSOABMixedHP31,901new5529
2020-04-26 22:09:20K9CTFlQPSOAB(A)CWLP49,632new5529
2020-04-26 22:07:48N9SEFlQPM/SMixedHP52,202new5529
 (N9XLV,@N9SE)
2020-04-26 22:06:52N9VPVFlQPSOAB(A)SSBLP198new5529
2020-04-26 22:04:23WT2PFlQPSOABMixedHP14,280new5529
2020-04-26 22:01:00K9GSFlQPSOAB(A)CWLP41,008new5529
2020-04-26 21:50:35N9TCAFlQPSOABSSBLP238new5529
2020-04-26 21:08:48W9FFABARTG 75Single OpHP4,941new5522
2020-04-26 21:02:17KT9LBARTG 75Single OpHP2,376new5522
 
2020-04-26 21:01:41AI9TBARTG 75SO ExpertHP9,180new5522
2020-04-26 21:00:53N9WGBARTG 75Single OpLP3,312new5522
2020-04-26 20:39:16K7JOEFlQPSOABMixedLP8,170new5529
2020-04-26 20:37:18W7KAMFlQPSOABSSBLP200new5529
2020-04-26 20:30:06K9ELFFlQPSOABSSBLP390new5529
2020-04-26 20:28:34W9FFASPDX RTTYSOABHP477,830update5520
2020-04-26 19:41:05NS9IFlQPSOABCWHP10,412new5529
2020-04-26 18:52:57N5KBFlQPSOAB(A)MixedHP3,116new5529
2020-04-26 16:10:44WB8BZK(@WB8ZBK)SPDX RTTYSOABLP544new5520
2020-04-26 14:59:41AC8ZUSPDX RTTYSOABLP5,208new5520
 
2020-04-26 14:31:56KW9USPDX RTTYSOABLP54,912new5520
2020-04-26 12:47:33KT9LSPDX RTTYSOABHP1,820new5520
2020-04-26 11:56:40N9WGSPDX RTTYSOABHP68,408new5520
2020-04-26 10:07:44NS9ISPDX RTTYSOABHP43,176new5520
2020-04-26 03:54:10K9NRSPDX RTTYSOABHP1,666,160new